Whiteman AFB, MO

12:04 AM CDT on July 22, 2017 (GMT -0500)
Whiteman Air Force Base

Weather History for KSZL - January, 2012

Change the Weather History Date:

Wednesday, January 11, 2012

  Actual Average Record
Temperature  
Mean Temperature 40 °F -  
Max Temperature 57 °F 36 °F 69 °F (2017)
Min Temperature 22 °F 20 °F -5 °F (1997)
Degree Days  
Heating Degree Days 24    
Moisture  
Dew Point 26 °F    
Average Humidity 74    
Maximum Humidity 100    
Minimum Humidity 34    
Precipitation  
Precipitation 0.00 in - - ()
Sea Level Pressure  
Sea Level Pressure 29.74 in    
Wind  
Wind Speed 9 mph (NW)    
Max Wind Speed 33 mph    
Max Gust Speed 39 mph    
Visibility 8 miles    
Events Snow    
Averages and records for this station are not official NWS values.
T = Trace of Precipitation, MM = Missing Value Source: NWS Daily Summary

Daily Weather History Graph

Daily Weather History Graph

Search for Another Location

Airport or City:

Trip Planner

Search our weather history database for the weather conditions in past years. The results will help you decide how hot, cold, wet, or windy it might be!

Date:

Astronomy

Jan. 11, 2012 Rise Set
Actual Time 7:32 AM CST 5:12 PM CST
Civil Twilight 7:02 AM CST 5:41 PM CST
Nautical Twilight 6:29 AM CST 6:14 PM CST
Astronomical Twilight 5:57 AM CST 6:46 PM CST
Moon 8:09 PM CST (1/11) 8:46 AM CST (1/11)
Length of Visible Light 10h 38m
Length of Day
9h 40m
Waning Gibbous, 93% of the Moon is Illuminated
Jan 11
Waning Gibbous
Jan 16
Last Quarter
Jan 23
New
Jan 30
First Quarter
Feb 7
Full

Hourly Weather History & Observations

Time (CST) Temp. Windchill Dew Point Humidity Pressure Visibility Wind Dir Wind Speed Gust Speed Precip Events Conditions
12:55 AM 30.6 °F - 23.7 °F 76% 29.72 in 10.0 mi Calm Calm - N/A   Clear
1:55 AM 28.6 °F 20.7 °F 24.6 °F 85% 29.71 in 10.0 mi NNW 8.1 mph - N/A   Clear
2:55 AM 29.1 °F - 23.9 °F 81% 29.70 in 10.0 mi Calm Calm - N/A   Clear
3:55 AM 25.9 °F - 22.3 °F 86% 29.69 in 9.0 mi Calm Calm - N/A   Clear
4:55 AM 25.7 °F - 22.6 °F 88% 29.68 in 10.0 mi Calm Calm - N/A   Clear
5:55 AM 25.5 °F 21.3 °F 23.0 °F 90% 29.68 in 10.0 mi West 3.5 mph - N/A   Clear
6:55 AM 25.3 °F - 22.5 °F 89% 29.67 in 10.0 mi Calm Calm - N/A   Clear
7:55 AM 24.4 °F - 22.6 °F 93% 29.68 in 10.0 mi Calm Calm - N/A   Clear
8:55 AM 31.6 °F - 30.0 °F 94% 29.68 in 10.0 mi Calm Calm - N/A   Clear
9:55 AM 43.5 °F 41.9 °F 29.3 °F 57% 29.68 in 10.0 mi WSW 3.5 mph - N/A   Clear
10:55 AM 49.5 °F - 27.7 °F 43% 29.67 in 10.0 mi South 4.6 mph - N/A   Clear
11:55 AM 53.4 °F - 26.8 °F 36% 29.64 in 10.0 mi West 4.6 mph - N/A   Clear
12:55 PM 55.6 °F - 27.7 °F 34% 29.61 in 10.0 mi WSW 6.9 mph - N/A   Clear
1:55 PM 57.4 °F - 29.7 °F 35% 29.60 in 6.0 mi WNW 8.1 mph - N/A   Haze
2:55 PM 57.2 °F - 31.5 °F 38% 29.61 in 10.0 mi WNW 8.1 mph - N/A   Clear
3:55 PM 49.1 °F - 32.0 °F 52% 29.65 in 10.0 mi NW 18.4 mph - N/A   Clear
4:55 PM 46.6 °F - 31.6 °F 56% 29.68 in 10.0 mi NW 13.8 mph - N/A   Clear
5:27 PM 41.0 °F 31.6 °F 32.0 °F 70% 29.68 in 10.0 mi NNW 20.7 mph 29.9 mph N/A   Mostly Cloudy
5:33 PM 41.0 °F 31.4 °F 33.8 °F 76% 29.71 in 10.0 mi NNW 21.9 mph 26.5 mph N/A   Mostly Cloudy
5:55 PM 40.8 °F 31.4 °F 34.2 °F 77% 29.73 in 10.0 mi NNW 20.7 mph 27.6 mph N/A   Overcast
6:55 PM 38.7 °F 26.1 °F 31.1 °F 74% 29.75 in 10.0 mi NNW 33.4 mph 38.0 mph N/A   Overcast
7:55 PM 33.4 °F 19.8 °F 24.3 °F 69% 29.81 in 10.0 mi NNW 28.8 mph 39.1 mph N/A   Overcast
8:55 PM 30.9 °F 19.8 °F 23.4 °F 74% 29.84 in 10.0 mi NNW 16.1 mph 27.6 mph N/A   Overcast
8:58 PM 30.2 °F 17.1 °F 23.0 °F 75% 29.84 in 10.0 mi NNW 21.9 mph 31.1 mph N/A   Overcast
9:31 PM 30.2 °F 17.8 °F 21.2 °F 69% 29.85 in 10.0 mi NNW 19.6 mph 28.8 mph N/A   Overcast
9:55 PM 29.7 °F 16.4 °F 21.9 °F 73% 29.85 in 10.0 mi NNW 21.9 mph 33.4 mph N/A   Overcast
9:58 PM 28.4 °F 13.8 °F 24.8 °F 86% 29.85 in 5.0 mi NNW 25.3 mph 29.9 mph N/A Snow Light Snow
10:12 PM 26.6 °F 13.4 °F 26.6 °F 100% 29.86 in 5.0 mi NW 18.4 mph 27.6 mph N/A Snow Light Snow
10:32 PM 24.8 °F 10.7 °F 23.0 °F 93% 29.87 in 2.0 mi NW 19.6 mph 26.5 mph N/A Snow Light Snow
10:41 PM 24.8 °F 9.6 °F 23.0 °F 93% 29.87 in 2.0 mi NW 23.0 mph 31.1 mph N/A Snow Light Snow
10:55 PM 24.4 °F 11.0 °F 23.4 °F 96% 29.87 in 2.0 mi NNW 17.3 mph 28.8 mph 0.00 in Snow Light Snow
10:58 PM 24.8 °F 11.5 °F 23.0 °F 93% 29.88 in 1.5 mi NW 17.3 mph 24.2 mph N/A Snow Light Snow
11:55 PM 22.6 °F 8.7 °F 22.5 °F 99% 29.90 in 1.8 mi NW 17.3 mph 24.2 mph 0.00 in Snow Light Snow